Volver al catálogo

STARLINK-35871

ActivoComunicacionesVLEO
NORAD 66566·PAYLOAD·🇺🇸 United States

Lanzado Nov 21, 2025 desde Cape Canaveral Space Force Station

Loading…

Próximos Pases (próximas 24 horas)

TLE

ActualizadoSource: CelesTrak SupGP

Época: Sep 15, 2026, 03:42 UTC

1 66566C 25268K   26258.15465278  .00041013  00000+0  14851-2 0  2580
2 66566  43.0031 356.8278 0001450 270.5420 271.6443 15.27566283    14

Sigue STARLINK-35871 en tiempo real con AllMySat

Download on the App Store